369  
ASUS43 KJKL 201110  
RWRJKL  
 
EAST KENTUCKY HOURLY WEATHER ROUNDUP  
NATIONAL WEATHER SERVICE JACKSON KY  
700 AM EDT SUN AUG 20 2017  
 
NOTE: "FAIR" INDICATES FEW OR NO CLOUDS BELOW 12,000 FEET WITH  
NO SIGNIFICANT WEATHER AND/OR S TO VISIBILITY
.  
 
* THESE REPORTS ARE NOT UNDER NWS QUALITY CONTROL AND MAY NOT  
REPORT WEATHER SUCH AS PRECIPITATION AND FOG.
 
 
KYZ079-080-083-085-087-088-110-112-115-119-120-201200   
..EASTERN KENTUCKY
 
 
 
CITY SKY/WX TMP DP RH WIND PRES REMARKS
 
JACKSON CLEAR 68 66 93 CALM 30.11R  
LONDON CLEAR 65 63 93 CALM 30.10R  
SOMERSET* CLEAR 63 63 100 CALM 30.10R FOG  
MONTICELLO* MOCLDY 64 64 100 W9 30.10R FOG  
WILLIAMSBURG* CLOUDY 64 64 100 CALM 30.11R VSB<1/4  
MIDDLESBORO* CLOUDY 66 66 100 CALM 30.13R FOG  
HARLAN APT* CLOUDY 64 63 94 CALM 30.14S VSB 1  
PIKE CO APT* N/A 66 66 100 S3 30.12S  
BIG SANDY APT* SUNNY 67 67 100 CALM 30.11S  
MOREHEAD APT* SUNNY 66 64 94 CALM 30.10R FOG  

 
 
KYZ035-036-041-042-044-050-067-078-099-201200   
..CENTRAL KENTUCKY
 
 
 
CITY SKY/WX TMP DP RH WIND PRES REMARKS
 
MT STERLING* CLEAR 66 64 94 S3 30.09R  
FLEMING/MASON* CLEAR 66 66 98 CALM 30.09R  
DANVILLE* CLEAR 64 63 94 CALM 30.09R  
LEXINGTON CLEAR 69 65 86 SE8 30.08R  
FRANKFORT CLEAR 67 64 90 CALM 30.05R  
LOUISVILLE PTCLDY 72 69 90 SE5 30.03R  
LEBANON* N/A 66 64 94 CALM 30.07R  
GLASGOW* CLEAR N/A N/A N/A CALM 30.06R  
BOWLING GREEN CLEAR 69 69 100 CALM 30.05R  

 
 
KYZ091>093-OHZ055-061-077-WVZ005-015-034-035-042-201200   
..SOUTHERN OHIO/WEST VIRGINIA
 
 
 
CITY SKY/WX TMP DP RH WIND PRES REMARKS
 
COVINGTON PTCLDY 71 68 90 CALM 30.05R  
COLUMBUS MOCLDY 66 63 90 E3 30.07R  
DAYTON MOCLDY 66 61 84 SE7 30.08R  
WILMINGTON CLEAR 65 65 100 SE5 30.07R  
HUNTINGTON CLEAR 66 64 93 CALM 30.07S FOG  
CHARLESTON MOCLDY 66 64 93 CALM 30.10R FOG  
PINEVILLE* FOG 64 63 97 MISG 30.20R VSB 1/2  
BECKLEY CLEAR 61 59 93 CALM 30.18R  
BLUEFIELD CLEAR 64 61 90 CALM 30.20R  
LOGAN CO APT* FOG 64 64 100 CALM 30.13S VSB<1/4  

 
 
VAZ002-007-008-TNZ017-027-036-066-071-201200   
..SOUTHWEST VIRGINIA/EAST TENNESSEE
 
 
 
CITY SKY/WX TMP DP RH WIND PRES REMARKS
 
WISE* CLEAR 64 64 100 CALM 30.20S  
JONESVILLE* N/A 63 61 94 CALM 30.15R FOG  
ABINGDON* CLEAR 65 65 100 CALM 30.17R  
BRISTOL FOG 63 63 100 CALM 30.14R VSB 1/2  
MORRISTOWN* SUNNY 68 66 94 E5 30.10S  
SEVIERVILLE* SUNNY 63 63 100 CALM 30.10R  
KNOXVILLE PTCLDY 67 65 93 CALM 30.08R  
LAFOLLETTE* FOG 64 64 100 CALM 30.14R VSB 0  
OAK RIDGE FOG 69 68 96 E3 30.10S VSB 1/4  
CROSSVILLE CLEAR 63 62 97 CALM 30.14R  
NASHVILLE PTCLDY 73 70 90 CALM 30.06R  

 
   
..KEY TO REMARKS
 
 
VSB - VISIBILITY IN MILES  
WCI - WIND CHILL INDEX  
HX - HEAT INDEX  
 

 
 
 
CLICK HERE TO GO TO PREVIOUS BULLETINS.

The Nexlab KY Page Main Text Page